Flag for Belgium Weather past 2 weeks in Mechelen, Belgium

Now
54 °F

Sprinkles. Passing clouds.


Feels Like: 52 °F
Forecast: 53 / 62 °F
Wind: 7 mph from South

Location: Brussels National Airport

Current Time: Aug 22, 2014 at 10:48:53 PM

Latest Report: Aug 22, 2014 at 9:50 PM


Visibility: N/A

Pressure: 29.92 "Hg

Humidity: 94%

Dew point: 52 °F

Location of MechelenLocation

Historic Weather in Mechelen — Graph

°F

Mechelen temperature yesterday

Maximum temperature yesterday: 66 °F (at 3:20 PM)
Minimum temperature yesterday: 46 °F (at 3:50 AM)
Average temperature yesterday: 56 °F

Past Weeks' High & Low Weather Summary

 TemperatureHumidityPressure
High73 °F (Aug 9, 2:20 PM)100% (Aug 16, 12:20 AM)30.15 "Hg (Aug 16, 12:20 AM)
Low46 °F (Aug 20, 5:50 AM)49% (Aug 20, 1:50 PM)29.53 "Hg (Aug 10, 4:50 PM)
Average60 °F77%29.87 "Hg
* Reported Aug 7 9:20 PM — Aug 22 9:50 PM, Mechelen, Weather by CustomWeather, © 2014

Note: Actual official high and low records may vary slightly from our data, if they occured in-between our weather recording intervals... More about our weather records

Advertising

Mechelen weather history for previous 24 hours

 ConditionsComfort  
Time TempWeatherWind HumidityBarometerVisibility
9:50 PM
Aug 22
54 °FSprinkles. Passing clouds.7 mph94%29.92 "HgN/A
9:20 PM55 °FSprinkles. Passing clouds.8 mph77%29.89 "HgN/A
8:50 PM55 °FScattered showers. Partly sunny.6 mph82%29.89 "HgN/A
8:20 PM55 °FSprinkles. Scattered clouds.8 mph77%29.89 "HgN/A
7:50 PM59 °FScattered showers. Scattered clouds.6 mph72%29.89 "HgN/A
7:20 PM61 °FScattered showers. Scattered clouds.8 mph77%29.89 "HgN/A
6:50 PM61 °FPassing clouds.9 mph77%29.86 "HgN/A
6:20 PM61 °FPassing clouds.12 mph77%29.86 "HgN/A
5:50 PM59 °FScattered clouds.10 mph88%29.86 "HgN/A
5:20 PM59 °FScattered clouds.12 mph82%29.86 "HgN/A
4:50 PM59 °FScattered clouds.13 mph82%29.86 "HgN/A
4:20 PM57 °FSprinkles. Scattered clouds.13 mph88%29.89 "HgN/A
3:50 PM59 °FSprinkles. Scattered clouds.10 mph77%29.89 "HgN/A
3:20 PM59 °FSprinkles. Scattered clouds.13 mph72%29.89 "HgN/A
2:50 PM61 °FSprinkles. Scattered clouds.12 mph68%29.89 "HgN/A
2:20 PM61 °FScattered showers. Scattered clouds.10 mph68%29.89 "HgN/A
1:50 PM61 °FScattered showers. Scattered clouds.16 mph63%29.89 "HgN/A
1:20 PM63 °FScattered showers. Scattered clouds.16 mph59%29.89 "HgN/A
12:50 PM61 °FPassing clouds.14 mph68%29.89 "HgN/A
12:20 PM61 °FPassing clouds.14 mph63%29.89 "HgN/A
11:50 AM61 °FPassing clouds.15 mph63%29.89 "HgN/A
11:20 AM59 °FSunny.14 mph68%29.89 "Hg10 mi
10:50 AM59 °FSunny.15 mph68%29.89 "Hg10 mi
10:20 AM61 °FSunny.14 mph68%29.89 "Hg10 mi
9:50 AM59 °FSunny.12 mph72%29.89 "Hg10 mi
9:20 AM57 °FSunny.13 mph77%29.89 "Hg10 mi
8:50 AM57 °FSunny.10 mph72%29.89 "Hg10 mi
8:20 AM55 °FSunny.7 mph77%29.89 "Hg10 mi
7:50 AM54 °FSunny.8 mph77%29.89 "Hg10 mi
7:20 AM54 °FClear.8 mph77%29.89 "Hg10 mi
6:50 AM54 °FClear.6 mph77%29.89 "Hg10 mi
6:20 AM54 °FPassing clouds.8 mph82%29.89 "HgN/A
5:50 AM54 °FLight rain. Passing clouds.7 mph82%29.92 "HgN/A
5:20 AM52 °FLight rain. Passing clouds.6 mph82%29.92 "HgN/A
4:50 AM52 °FClear.7 mph77%29.92 "Hg10 mi
4:20 AM52 °FClear.8 mph82%29.92 "Hg10 mi
3:50 AM50 °FClear.8 mph88%29.92 "Hg10 mi
3:20 AM52 °FClear.8 mph82%29.92 "Hg10 mi
2:50 AM52 °FClear.8 mph82%29.95 "Hg10 mi
2:20 AM52 °FClear.7 mph77%29.95 "Hg10 mi
1:50 AM52 °FClear.7 mph77%29.95 "Hg10 mi
1:20 AM52 °FClear.7 mph82%29.95 "Hg10 mi
12:50 AM54 °FClear.7 mph77%29.98 "Hg10 mi
12:20 AM54 °FClear.7 mph77%29.98 "Hg10 mi
11:50 PM
Aug 21
54 °FClear.8 mph77%29.98 "Hg10 mi
11:20 PM54 °FClear.7 mph77%29.98 "Hg10 mi
10:50 PM55 °FClear.7 mph72%29.98 "Hg10 mi
10:20 PM54 °FClear.7 mph72%29.98 "Hg10 mi
Weather by CustomWeather, © 2014

See weather overviewHow to use our weather pages